Kamaran Airport


Codes: OYKM/KAM
Name: Kamaran Airport
City: Kamaran
Country: Yemen
Elevation: 51 ft.

Photos at Kamaran Airport


   Photos courtesy of SpottingLog. You can add your own sightings and photos by signing up for a free trial today.



No photos found.

Weather at Kamaran Airport


Time (UTC)DescriptionTempratureWindCloud coverageVisibilityPressureHumidity
13-Jun-2024 03:00Clear Sky31°C4 mph, SW1%10000m1005hPa65%
13-Jun-2024 06:00Clear Sky31°C7 mph, S3%10000m1007hPa64%
13-Jun-2024 09:00Clear Sky31°C13 mph, S2%10000m1007hPa64%
13-Jun-2024 12:00Clear Sky32°C9 mph, S3%10000m1004hPa67%
13-Jun-2024 15:00Clear Sky32°C4 mph, S0%10000m1005hPa69%
13-Jun-2024 18:00Clear Sky33°C4 mph, S4%10000m1006hPa64%
13-Jun-2024 21:00Clear Sky33°C4 mph, W3%10000m1005hPa66%
14-Jun-2024 00:00Clear Sky32°C2 mph, W2%10000m1004hPa69%
14-Jun-2024 03:00Clear Sky32°C4 mph, NW5%10000m1005hPa67%
14-Jun-2024 06:00Clear Sky32°C7 mph, W5%10000m1006hPa69%
14-Jun-2024 09:00Broken Clouds32°C13 mph, S74%10000m1006hPa76%
14-Jun-2024 12:00Broken Clouds32°C7 mph, S63%10000m1004hPa71%
14-Jun-2024 15:00Broken Clouds32°C9 mph, N76%10000m1004hPa69%
14-Jun-2024 18:00Broken Clouds32°C11 mph, NE77%10000m1004hPa70%
14-Jun-2024 21:00Broken Clouds33°C2 mph, NE75%10000m1003hPa66%
15-Jun-2024 00:00Broken Clouds32°C7 mph, W57%10000m1001hPa69%
15-Jun-2024 03:00Broken Clouds32°C9 mph, NW72%10000m1003hPa71%
15-Jun-2024 06:00Overcast Clouds32°C2 mph, SE86%10000m1004hPa66%
15-Jun-2024 09:00Overcast Clouds32°C11 mph, S94%10000m1003hPa67%
15-Jun-2024 12:00Broken Clouds32°C9 mph, SW58%10000m1002hPa69%
15-Jun-2024 15:00Clear Sky32°C4 mph, SW3%10000m1002hPa66%
15-Jun-2024 18:00Scattered Clouds33°C7 mph, N25%10000m1003hPa60%
15-Jun-2024 21:00Broken Clouds32°C7 mph, NE78%10000m1002hPa60%
16-Jun-2024 00:00Broken Clouds33°C7 mph, NW71%10000m1001hPa58%
16-Jun-2024 03:00Scattered Clouds33°C4 mph, SW30%10000m1002hPa59%
16-Jun-2024 06:00Scattered Clouds32°C9 mph, S49%10000m1004hPa62%
16-Jun-2024 09:00Scattered Clouds32°C7 mph, SW29%10000m1003hPa62%
16-Jun-2024 12:00Few Clouds32°C9 mph, W14%10000m1001hPa63%
16-Jun-2024 15:00Clear Sky33°C4 mph, N2%10000m1002hPa64%
16-Jun-2024 18:00Few Clouds32°C9 mph, NE12%10000m1003hPa63%
16-Jun-2024 21:00Few Clouds33°C7 mph, NE11%10000m1002hPa56%
17-Jun-2024 00:00Few Clouds33°C7 mph, NW23%10000m1000hPa58%
17-Jun-2024 03:00Few Clouds33°C4 mph, W17%10000m1002hPa61%
17-Jun-2024 06:00Scattered Clouds32°C7 mph, SW46%10000m1004hPa65%
17-Jun-2024 09:00Scattered Clouds32°C11 mph, S46%10000m1004hPa69%
17-Jun-2024 12:00Scattered Clouds32°C9 mph, SW41%10000m1001hPa65%
17-Jun-2024 15:00Scattered Clouds33°C4 mph, N46%10000m1001hPa63%
17-Jun-2024 18:00Scattered Clouds33°C9 mph, NE31%10000m1002hPa62%
17-Jun-2024 21:00Scattered Clouds33°C4 mph, NE45%10000m1001hPa60%
18-Jun-2024 00:00Broken Clouds33°C7 mph, NW77%10000m1000hPa62%